CAPE
882 813 823 731 621 596 629 766 923 1053 1172 1412 1458 1687 1947 2196 2298 2418 2431 2476 2594 2740 2894 2848 3270 3243 3538 3277 3734 3783 3584 2955 2810 2835 3278 3378 3358 3500 3436 3162 2659 2191
1192 1044 1246 754 693 1032 505 662 814 901 1031 1243 1390 1438 1756 2009 2343 2417 2392 2332 2635 3009 2996 2815 3282 3258 3276 3259 3456 2882 2841 3197 2815 4515 3764 3264 3242 3517 3555 3411 2935 2533
1246 1097 1256 848 785 1033 786 707 668 752 915 1074 1268 1353 1535 2093 2032 2209 2311 2349 2285 2439 2913 2809 3063 3424 3238 3163 3272 3182 2861 2840 2943 3198 3485 2948 3362 3775 3926 3402 3253 3126
1280 1118 1227 1075 850 1083 1012 1006 905 874 983 1190 1241 1406 1732 2177 2117 1943 2017 3186 2363 2227 2624 2816 3005 3126 3202 3116 3084 3006 2981 3018 3025 3280 3373 3095 2974 3611 3756 3442 3651 3098
1737 1437 1278 1269 1072 1207 1183 1122 1182 1057 1136 1228 1279 1395 1911 2060 2197 1986 1946 1946 2242 2214 2342 2843 2829 2890 3027 2922 2888 2917 2831 2942 2884 3056 3114 3112 2875 3504 3810 3474 3265 3116
1909 1832 1638 1408 1327 1268 1205 1179 1241 1303 1243 1192 1314 1699 1545 1542 1762 2062 2108 2018 2052 2088 2223 2552 2797 2813 2854 2925 2848 2849 2818 2858 2853 3033 3132 3177 3114 2954 3077 3350 3146 3148
2052 1959 1938 1792 1618 1463 1340 1308 1238 1714 1420 1339 1500 1540 1557 1536 1567 1621 1878 2038 2109 2287 2148 2430 2664 2801 2767 2833 2868 2898 2786 2722 2727 2932 3214 3340 3382 3424 3170 3103 3306 3331
2135 2052 2096 2003 1858 1687 1534 1379 1348 1489 1501 1750 1507 1395 1385 1452 1526 1596 1607 1657 1848 2117 2160 2277 2586 2673 2658 2768 2844 2789 2752 2728 2667 2806 3134 3267 3084 3165 3186 3005 3268 3315
2162 2173 2105 2136 2037 1891 1799 1644 1460 1302 1667 1510 1504 1483 1483 1495 1534 1554 1564 1591 1640 1831 2049 2210 2498 2613 2666 2804 2828 2787 2802 2759 2790 2831 2913 3006 2874 2963 3005 3025 3019 3104
2201 2267 2162 2156 2156 2067 1929 1743 1468 1418 1439 1428 1356 1379 1420 1408 1394 1394 1346 1332 1361 1534 1953 2317 2424 2572 2669 2698 2801 2839 2846 2812 2719 2689 2792 2802 2837 2929 3006 2955 2923 2910
2268 2339 2268 2194 2174 2153 2097 1959 1781 1606 1545 1563 1577 1618 1544 1403 1411 1373 1290 1188 1242 1343 1571 2246 2482 2592 2696 2682 2693 2802 2850 2795 2846 2760 2701 2726 2826 2844 3562 3230 3015 3017
2427 2384 2396 2376 2320 2264 2200 2150 2038 1947 1838 1744 1730 1731 1598 1408 1273 1236 1245 1256 1153 1136 1414 2045 2437 2522 2659 2781 2766 2740 2791 2836 2866 2834 2685 2644 2631 2570 2560 2579 2547 2409
2455 2461 2417 2439 2463 2455 2438 2401 2320 2120 1948 1931 1930 1861 1695 1540 1512 1505 1423 1365 1296 1142 1283 1910 2272 2377 2495 2550 2624 2713 2734 2822 2798 2816 2731 2665 2595 2193 2264 2178 2078 2066
2348 2449 2439 2393 2431 2516 2588 2625 2473 2191 2032 2041 2035 1918 1736 1670 1696 1622 1521 1510 1470 1309 1220 1836 2201 2387 2426 2504 2566 2605 2638 2727 2790 2693 2708 2402 2116 2079 2219 2318 2170 1984
2157 2322 2411 2456 2513 2553 2586 2536 2364 2165 2088 2082 2065 1966 1850 1766 1718 1644 1520 1443 1385 1485 1380 1680 2354 2343 2453 2309 2374 2592 2498 2518 2518 2311 2229 2212 2069 1968 2123 2288 2210 2090
1966 2102 2269 2413 2505 2490 2408 2357 2241 2136 2062 2049 2078 1991 1795 1538 1392 1494 1496 1424 1357 1466 1541 1759 2247 1962 2182 2637 2751 2736 2889 2890 2573 2429 2310 2157 2115 2389 2480 2448 2280 2113
1908 1986 2088 2176 2198 2201 2228 2201 2122 2026 1960 1937 2030 1975 1716 1432 1518 1593 1581 1422 1350 1315 1396 1690 1885 1834 1833 1908 1916 1853 2248 2706 2531 2034 2360 2381 2367 2635 2628 2630 2662 2501
1965 2021 2079 2113 2090 2103 2226 2199 2006 1940 1925 1966 2009 2017 1941 1716 1598 1561 1560 1505 1493 1383 1324 1401 1460 1525 1653 1750 1827 1788 1815 2035 1872 1973 2340 2593 2619 2640 2597 2635 2726 2694
1952 1945 1982 2063 2125 2196 2339 2262 2008 1971 2008 2000 1956 1910 1872 1809 1684 1532 1404 1453 1462 1335 1138 1090 1277 1371 1498 1513 1684 1787 1863 1946 1866 2026 2008 2311 2604 2636 2687 2826 2845 2797
1805 1874 1968 2074 2112 2146 2237 2182 1999 1979 1975 1924 1864 1788 1691 1547 1419 1412 1409 1386 1346 1226 1056 1086 1239 1344 1505 1714 1880 1990 2054 2036 2011 2033 2048 2176 2182 2480 2619 2593 2649 2588
1671 1596 1520 1825 2085 2091 2092 1980 1813 1791 1821 1827 1742 1600 1450 1269 1211 1256 1332 1333 1209 1099 967 1055 1202 1403 1563 1602 1548 1605 1748 1861 1852 1820 1798 1811 1793 1745 1602 1851 2075 1958
1302 1222 1265 1339 1722 1961 1861 1751 1655 1559 1510 1382 1186 1182 1115 1064 1114 1176 1298 1246 1089 908 788 922 1006 1080 1107 1086 1153 1289 1388 1480 1498 1548 1633 1660 1382 1399 1426 1497 1537 1503
1455 1272 1119 1167 1303 1366 1553 1567 1547 1368 984 777 746 966 993 993 1067 1109 1131 1122 1106 894 705 797 874 919 985 1012 1021 1069 1090 1197 1691 1701 1477 1375 1341 1434 1346 1341 1310 1287
1055 946 934 981 1051 1132 1300 1376 1240 990 575 481 577 685 854 1020 983 992 983 1020 998 776 613 742 855 914 930 913 884 817 779 1216 1626 1625 1543 1415 1383 1380 1368 1313 1294 1260
836 871 883 846 912 987 1227 1373 1165 945 671 498 752 859 888 838 847 871 819 743 642 597 670 708 738 743 690 626 641 698 819 1038 1276 1270 1164 1152 1202 1254 1251 1277 1288 1278
558 577 700 867 854 990 986 1241 1235 1093 926 790 698 730 695 649 651 597 549 578 629 655 666 679 661 671 719 775 845 906 946 963 1050 1192 1216 1156 1018 1023 1024 1020 1039 1058
Wind_Speed
16 15 13 12 11 10 8 8 8 7 7 7 7 7 6 7 5 3 2 2 3 3 3 4 4 3 2 3 1 1 1 2 3 3 6 8 10 11 12 12 11 8
16 14 14 12 11 11 10 8 7 6 6 5 6 5 6 6 5 2 1 2 2 3 3 5 5 5 4 3 4 3 1 2 4 4 6 9 9 9 10 9 9 8
18 16 14 12 11 9 8 8 8 7 6 5 6 6 5 5 4 3 2 1 1 3 5 5 6 7 6 4 4 3 2 1 2 4 5 6 6 7 7 7 7 8
19 18 16 14 13 11 11 10 9 8 9 9 6 6 6 6 5 4 3 3 4 4 5 6 6 5 5 4 3 1 1 1 2 3 4 4 4 5 5 5 5 7
20 20 18 17 15 14 14 12 11 10 9 7 7 7 6 6 5 6 6 7 8 8 8 7 6 4 3 3 2 1 1 2 2 2 3 4 2 2 3 4 5 5
22 21 20 19 18 17 16 14 13 12 10 9 7 8 7 7 7 7 8 9 9 9 9 7 6 4 3 2 3 2 2 2 2 2 3 5 4 2 2 1 2 1
21 22 21 22 21 19 17 15 15 14 11 9 11 11 12 12 12 11 10 9 8 7 6 6 5 4 3 4 4 3 4 4 4 2 4 4 4 5 4 3 3 3
20 21 22 23 22 21 19 18 16 15 14 15 15 15 16 16 15 15 14 14 11 8 4 3 2 3 4 6 4 4 5 4 3 2 3 4 3 4 4 3 3 3
18 20 21 21 21 21 20 19 18 18 19 20 19 17 15 14 15 16 14 12 8 6 5 4 4 3 4 5 4 4 3 3 2 1 2 3 3 3 2 1 1 1
15 17 18 19 19 20 19 18 19 21 21 20 17 16 15 14 16 16 14 11 6 4 3 4 4 4 4 5 4 4 3 1 1 1 1 1 1 0 4 5 4 4
14 15 15 15 16 17 15 15 18 19 17 15 15 15 16 16 15 15 12 11 7 2 2 3 4 4 4 4 4 5 4 3 3 3 3 4 5 6 5 6 6 5
13 14 14 14 14 14 13 13 16 15 13 13 12 12 14 14 12 11 11 9 9 5 4 4 5 5 4 4 4 5 5 4 4 4 5 8 8 8 8 8 8 7
15 14 15 14 14 13 12 13 14 13 13 12 13 12 14 14 12 10 10 10 10 9 7 6 6 7 7 6 6 7 6 6 5 7 10 10 8 8 9 9 8 9
17 17 16 15 15 14 12 13 14 13 12 12 14 13 14 14 13 10 9 9 10 11 10 10 10 9 8 8 9 9 8 7 7 12 11 10 7 8 9 9 9 9
20 20 20 18 17 15 13 14 15 13 13 14 15 15 15 14 13 12 12 11 12 12 12 13 13 12 11 12 12 10 10 8 12 14 12 11 8 8 9 10 10 11
20 20 20 19 18 17 16 16 17 16 15 15 15 15 15 16 15 15 14 13 13 14 14 15 15 15 13 11 12 12 12 11 15 15 14 13 11 9 10 12 12 13
21 20 20 19 18 17 17 18 17 18 17 16 16 16 15 16 17 17 16 16 16 16 16 17 17 17 20 19 16 13 14 14 20 15 11 13 14 13 12 13 14 14
23 22 21 20 20 18 18 19 20 19 18 17 18 18 17 19 18 17 18 19 20 19 19 20 22 24 23 22 19 16 14 16 23 18 12 14 16 15 16 16 16 18
27 26 23 20 20 19 20 22 22 20 19 18 17 17 20 19 18 19 19 20 22 22 22 24 26 27 26 25 23 21 20 19 24 26 14 12 16 18 18 19 21 23
32 30 26 23 24 25 25 24 24 22 23 24 24 23 20 19 21 21 22 22 23 25 28 28 28 27 26 26 25 24 24 24 24 28 26 17 14 17 22 23 25 26
30 29 29 29 28 28 28 29 28 28 27 28 28 28 28 27 27 24 27 28 29 30 30 30 29 29 28 27 26 26 26 25 26 26 27 27 23 21 21 24 27 28
29 31 33 31 27 27 29 31 32 33 33 29 28 30 32 33 32 32 32 32 32 33 33 32 31 33 30 29 28 28 27 29 28 28 30 32 32 30 30 30 29 29
33 32 30 27 23 24 26 27 29 32 34 31 27 27 30 32 33 33 34 34 34 34 35 33 32 33 32 31 30 30 30 31 32 33 35 37 36 34 32 31 31 31
32 28 28 27 24 20 21 24 27 31 32 30 29 27 28 31 33 35 36 36 36 36 34 34 33 33 34 32 32 32 33 33 34 37 38 38 38 37 36 35 37 42
31 29 30 29 23 19 21 25 26 28 30 32 33 32 32 33 34 36 37 38 39 39 42 38 35 34 36 34 35 35 36 35 37 38 39 38 37 38 36 35 36 39
29 28 28 25 20 22 28 32 32 31 32 33 35 35 36 36 35 36 40 40 40 41 41 38 37 35 37 39 40 41 40 39 38 39 39 39 39 38 37 38 38 37
Wind_Direction
180 179 177 175 170 170 175 176 171 171 163 169 161 149 146 141 157 149 121 92 65 48 47 45 38 20 348 322 308 274 214 217 214 208 223 224 228 226 225 225 233 237
188 188 187 188 186 183 184 180 180 175 170 167 157 163 162 167 157 181 135 61 48 31 10 18 16 8 1 346 337 316 268 192 217 195 211 217 223 227 226 222 227 247
196 197 199 204 203 202 203 193 193 181 184 178 189 190 192 192 195 203 224 299 8 13 10 4 9 11 2 354 343 321 304 230 182 194 213 218 218 218 221 217 220 226
199 202 205 207 211 215 215 218 208 205 203 208 199 202 212 215 234 254 275 310 337 0 358 358 9 12 2 348 333 297 275 188 178 186 202 211 217 207 204 217 218 226
205 205 207 210 213 217 223 224 225 226 229 224 229 234 243 254 275 295 312 327 338 346 346 353 353 0 346 326 311 255 194 132 146 162 180 161 164 177 189 214 219 218
208 209 211 215 219 223 225 226 229 236 239 248 262 268 280 291 297 306 315 323 327 332 335 333 335 336 305 272 236 197 168 146 126 128 113 118 120 100 108 122 167 156
214 215 216 218 223 227 230 232 236 241 249 257 260 264 264 263 266 266 270 280 288 302 312 316 320 315 278 250 225 186 174 158 150 144 117 115 113 112 91 78 68 58
216 219 222 224 227 230 233 237 243 248 255 254 255 251 259 268 274 275 277 281 280 272 258 245 272 283 260 245 228 207 175 186 160 137 113 102 108 106 100 60 27 41
217 220 224 229 231 232 235 239 243 249 250 252 255 259 264 275 278 277 276 274 274 274 261 219 184 201 249 254 243 232 201 181 177 122 61 66 62 65 69 310 292 283
218 221 225 227 230 233 237 239 244 247 252 259 265 266 269 263 263 265 260 256 242 224 253 256 218 193 220 246 259 264 264 249 241 280 329 341 12 233 233 249 270 288
221 224 226 226 227 230 234 238 245 249 250 256 256 256 255 252 251 251 245 241 239 225 189 224 250 238 230 240 248 260 275 272 278 291 294 284 257 255 269 285 291 300
223 226 228 230 229 228 227 231 240 244 246 240 244 247 249 249 251 243 233 219 224 238 236 213 232 254 252 253 263 265 270 274 277 284 274 270 280 287 291 295 294 292
226 227 228 230 232 231 225 229 235 237 237 236 235 236 242 246 243 240 225 219 216 231 247 250 245 253 259 259 259 264 269 274 276 272 269 276 287 297 295 297 303 299
226 228 228 228 229 230 229 233 239 239 235 231 234 236 241 246 247 245 242 239 232 237 245 252 254 256 259 261 261 265 267 268 269 263 268 275 277 280 288 295 295 291
227 229 231 232 232 234 233 236 241 241 239 237 236 237 240 249 255 255 255 253 248 247 250 253 258 258 258 261 266 271 273 272 266 273 276 274 264 268 280 286 284 284
231 235 239 238 238 238 237 240 243 243 242 242 243 245 247 250 253 256 257 257 256 255 256 257 260 259 262 274 272 270 272 267 265 273 279 282 280 277 277 281 283 285
238 236 242 246 247 246 245 248 251 250 251 250 249 251 253 254 256 259 261 261 261 261 262 260 260 261 264 259 258 258 265 268 270 263 267 275 278 279 272 271 274 276
246 241 241 243 247 249 252 255 256 255 254 255 254 257 256 255 259 261 261 262 261 262 265 264 264 255 255 255 257 258 258 265 270 274 262 273 277 277 274 271 270 270
240 246 243 242 245 247 249 252 255 254 253 254 259 262 262 266 265 265 264 263 264 267 267 264 261 254 254 253 256 255 255 258 272 282 271 264 271 273 273 273 271 270
235 236 242 242 242 246 248 252 255 256 253 250 245 243 252 258 262 268 266 267 266 265 261 260 261 254 256 257 258 257 256 261 269 280 286 276 265 269 272 275 276 277
241 241 232 235 240 245 247 247 246 248 255 256 253 251 250 247 246 250 255 258 257 259 262 260 258 251 254 256 258 259 259 263 267 268 274 279 279 270 264 269 274 276
239 241 235 234 242 250 252 256 259 256 245 238 247 256 254 255 253 250 249 250 252 257 260 258 257 249 251 253 256 258 261 267 267 269 272 271 268 265 264 264 267 270
240 244 247 248 244 248 254 259 264 265 261 255 244 242 251 256 258 258 258 257 255 254 256 256 255 248 248 251 254 256 262 264 266 270 268 268 266 266 265 266 267 266
241 246 248 246 240 239 251 258 261 262 260 258 258 257 257 258 259 258 256 259 261 259 256 256 254 249 247 249 253 257 263 264 266 267 266 266 266 264 265 265 265 262
243 245 244 240 232 234 251 265 268 267 261 256 256 260 265 268 267 262 257 254 258 260 259 258 255 251 247 250 254 258 264 265 267 268 266 264 264 263 262 263 262 261
250 253 252 250 249 248 245 250 258 259 254 253 256 264 273 272 267 265 262 258 257 258 257 257 254 252 250 251 255 258 263 267 267 269 270 269 266 263 260 259 259 260